DW3403 Milford MA US current weather conditions

sailwx.info

Wind from 263

Air temperature 23.9° C
Dewpoint 18.7° C

Last reported at 2020-Aug-07 00:08 UTC.
Time now 2020-Aug-07 01:02 UTC

Location: N 42°10' W 071°32'.
View on Google Maps.

See reports from other nearby stations

  
Tides and Currents Weather Stations Pressure Air Temp Water Temp Dewpoint Dewpoint Depression Visibility Wind Speed Wind Dir Waves Ship Positions
date/time (UTC)wind fromknots sea level pressurealtimeterstation pressurevisibilityair tempwater tempwave heightnotes
2020-Aug-07 00:08 263 23.9
2020-Aug-07 00:03 263 23.9
2020-Aug-06 23:58 263 24.4
2020-Aug-06 23:53 263 0 gusting 1 24.4
2020-Aug-06 23:48 263 25.0
2020-Aug-06 23:43 263 25.0
2020-Aug-06 23:38 263 25.0
2020-Aug-06 23:33 263 25.0
2020-Aug-06 23:28 263 25.6
2020-Aug-06 23:23 263 25.6
2020-Aug-06 23:18 263 0 gusting 1 25.6
2020-Aug-06 23:13 263 0 gusting 2 26.1
2020-Aug-06 23:08 262 26.1
2020-Aug-06 23:03 261 0 gusting 2 26.1
2020-Aug-06 22:58 242 0 gusting 2 26.1
2020-Aug-06 22:53 277 1 gusting 5 26.1
2020-Aug-06 22:48 250 0 gusting 5 26.1
2020-Aug-06 22:43 276 0 gusting 3 26.1
2020-Aug-06 22:38 263 0 gusting 3 26.7
2020-Aug-06 22:33 273 0 gusting 3 26.7
2020-Aug-06 22:28 204 1 gusting 3 26.7
2020-Aug-06 22:23 276 0 gusting 3 26.7
2020-Aug-06 22:18 258 0 gusting 2 26.7
2020-Aug-06 22:13 134 0 gusting 2 26.7
2020-Aug-06 22:08 336 0 gusting 3 26.7
2020-Aug-06 22:03 257 0 gusting 3 26.7
2020-Aug-06 21:58 190 1 gusting 5 26.7
2020-Aug-06 21:53 275 1 gusting 6 27.2
2020-Aug-06 21:48 222 2 gusting 6 27.2
2020-Aug-06 21:43 341 0 gusting 3 27.2
2020-Aug-06 21:38 038 1 gusting 2 27.2
2020-Aug-06 21:33 298 0 gusting 3 27.2
2020-Aug-06 21:28 299 1 gusting 3 27.2
2020-Aug-06 21:23 321 0 gusting 6 27.2
2020-Aug-06 21:18 360 2 gusting 6 27.2
2020-Aug-06 21:13 276 0 gusting 8 27.2
2020-Aug-06 21:08 308 3 gusting 8 27.2
2020-Aug-06 21:03 221 1 gusting 3 27.2
2020-Aug-06 20:58 024 1 gusting 4 27.2
2020-Aug-06 20:53 316 2 gusting 6 27.2
2020-Aug-06 20:48 333 1 gusting 5 27.8
2020-Aug-06 20:43 032 1 gusting 6 27.8
2020-Aug-06 20:38 014 0 gusting 2 27.2
2020-Aug-06 20:33 052 0 gusting 2 27.8
2020-Aug-06 20:28 034 1 gusting 6 27.8
2020-Aug-06 20:23 140 2 gusting 6 27.8
2020-Aug-06 20:18 275 0 gusting 3 27.8
2020-Aug-06 20:13 360 1 gusting 3 27.2
2020-Aug-06 20:08 295 0 gusting 7 27.8
2020-Aug-06 20:03 200 2 gusting 8 27.8
2020-Aug-06 19:58 149 2 gusting 8 28.3
2020-Aug-06 19:53 273 0 gusting 6 28.3
2020-Aug-06 19:48 360 2 gusting 5 28.3
2020-Aug-06 19:43 242 1 gusting 6 27.8
2020-Aug-06 19:38 309 1 gusting 6 27.8
2020-Aug-06 19:33 143 1 gusting 4 27.8
2020-Aug-06 19:28 218 2 gusting 4 27.2
2020-Aug-06 19:23 293 0 gusting 3 27.2
2020-Aug-06 19:18 046 0 gusting 4 27.8
2020-Aug-06 19:13 300 1 gusting 6 27.8
2020-Aug-06 19:08 245 1 gusting 6 27.8
2020-Aug-06 19:03 065 1 gusting 5 27.8
2020-Aug-06 18:58 294 2 gusting 6 27.8
2020-Aug-06 18:53 292 1 gusting 6 27.8
2020-Aug-06 18:48 182 1 gusting 6 27.8
2020-Aug-06 18:43 265 2 gusting 5 27.2
2020-Aug-06 18:38 276 0 gusting 4 27.2
2020-Aug-06 18:33 015 0 gusting 4 27.2
2020-Aug-06 18:28 309 2 gusting 3 27.2
2020-Aug-06 18:23 295 0 gusting 3 26.7
2020-Aug-06 18:18 292 1 gusting 5 26.7
2020-Aug-06 18:13 251 1 gusting 5 27.2
2020-Aug-06 18:08 274 0 gusting 3 27.2
2020-Aug-06 18:03 019 1 gusting 3 27.8
2020-Aug-06 17:58 254 1 gusting 3 27.8
2020-Aug-06 17:53 326 1 gusting 6 27.8
2020-Aug-06 17:48 335 2 gusting 6 27.8
2020-Aug-06 17:43 166 0 gusting 5 27.8
2020-Aug-06 17:38 204 2 gusting 5 27.8
2020-Aug-06 17:33 262 27.2
2020-Aug-06 17:28 273 0 gusting 6 27.2
2020-Aug-06 17:23 153 1 gusting 5 27.2
2020-Aug-06 17:18 142 2 gusting 5 27.2
2020-Aug-06 17:13 180 0 gusting 3 26.7
2020-Aug-06 17:08 272 1 gusting 3 26.7
2020-Aug-06 17:03 024 0 gusting 4 26.7
2020-Aug-06 16:58 284 0 gusting 4 26.7
2020-Aug-06 16:53 014 1 gusting 6 26.7
2020-Aug-06 16:48 316 0 gusting 3 26.7
2020-Aug-06 16:43 035 0 gusting 2 26.7
2020-Aug-06 16:38 360 0 gusting 1 26.7
2020-Aug-06 16:33 351 27.2
2020-Aug-06 16:28 355 0 gusting 5 27.8
2020-Aug-06 16:23 248 3 gusting 7 27.8
2020-Aug-06 16:18 015 2 gusting 7 27.2
2020-Aug-06 16:13 257 1 gusting 3 27.2
2020-Aug-06 16:08 325 1 gusting 3 26.7
2020-Aug-06 16:03 288 1 gusting 5 26.7
2020-Aug-06 15:58 282 1 gusting 5 26.1
2020-Aug-06 15:53 351 0 gusting 4 25.6
2020-Aug-06 15:48 308 0 gusting 4 25.6
2020-Aug-06 15:43 009 0 gusting 2 25.6
2020-Aug-06 15:38 323 0 gusting 3 25.6
2020-Aug-06 15:33 028 0 gusting 3 25.6
2020-Aug-06 15:28 360 0 gusting 6 25.6
2020-Aug-06 15:23 053 0 gusting 6 25.6
2020-Aug-06 15:18 005 0 gusting 4 25.0
2020-Aug-06 15:13 360 1 gusting 4 25.0
2020-Aug-06 15:08 284 1 gusting 3 25.0
2020-Aug-06 15:03 011 0 gusting 2 24.4
2020-Aug-06 14:58 011 24.4
2020-Aug-06 14:53 355 0 gusting 1 24.4
2020-Aug-06 14:48 355 24.4
2020-Aug-06 14:43 302 0 gusting 2 25.0
2020-Aug-06 14:39 300 1 gusting 2 24.4
2020-Aug-06 14:33 315 24.4
2020-Aug-06 14:28 315 24.4
2020-Aug-06 14:23 313 0 gusting 2 24.4
2020-Aug-06 14:18 332 1 gusting 2 24.4
2020-Aug-06 14:13 349 0 gusting 1 24.4
2020-Aug-06 14:08 295 0 gusting 4 24.4
2020-Aug-06 14:03 297 1 gusting 4 23.9
2020-Aug-06 13:58 282 1 gusting 5 23.9
2020-Aug-06 13:53 338 1 gusting 6 23.9
2020-Aug-06 13:48 298 2 gusting 6 23.3
2020-Aug-06 13:43 288 1 gusting 6 23.3
2020-Aug-06 13:38 360 0 gusting 2 23.3
2020-Aug-06 13:33 335 0 gusting 2 23.3
2020-Aug-06 13:28 044 0 gusting 3 22.8
2020-Aug-06 13:23 281 0 gusting 3 22.8
2020-Aug-06 13:18 115 0 gusting 3 22.8
2020-Aug-06 13:13 337 0 gusting 6 22.2
2020-Aug-06 13:08 310 0 gusting 4 22.2
2020-Aug-06 13:03 267 0 gusting 4 22.2
2020-Aug-06 12:58 029 0 gusting 2 21.7
2020-Aug-06 12:53 316 0 gusting 6 21.7
2020-Aug-06 12:48 355 2 gusting 6 21.1
2020-Aug-06 12:43 292 1 gusting 3 21.1
2020-Aug-06 12:38 287 21.1
2020-Aug-06 12:33 261 1 gusting 3 20.6
2020-Aug-06 12:28 292 0 gusting 3 20.6
2020-Aug-06 12:23 346 0 gusting 1 20.0
2020-Aug-06 12:18 311 20.0
2020-Aug-06 12:13 291 0 gusting 2 19.4
2020-Aug-06 12:08 313 0 gusting 2 18.9
2020-Aug-06 12:03 304 0 gusting 2 18.9
2020-Aug-06 11:58 328 18.3
2020-Aug-06 11:53 328 17.8
2020-Aug-06 11:48 328 17.8
2020-Aug-06 11:43 329 17.2
2020-Aug-06 11:38 329 0 gusting 0 16.7
2020-Aug-06 11:33 329 0 gusting 1 16.1
2020-Aug-06 11:28 329 16.1
2020-Aug-06 11:23 329 0 gusting 0 15.6
2020-Aug-06 11:18 329 15.6
2020-Aug-06 11:13 329 15.6
2020-Aug-06 11:08 329 15.0
2020-Aug-06 11:03 329 15.0
2020-Aug-06 10:58 328 15.0
2020-Aug-06 10:53 328 0 gusting 1 15.0
2020-Aug-06 10:48 328 15.0
2020-Aug-06 10:43 328 15.0
2020-Aug-06 10:38 328 15.0
2020-Aug-06 10:33 328 15.0
2020-Aug-06 10:28 328 14.4
2020-Aug-06 10:23 328 15.0
2020-Aug-06 10:18 328 14.4
2020-Aug-06 10:13 328 15.0
2020-Aug-06 10:08 328 0 gusting 0 14.4
2020-Aug-06 10:03 328 0 gusting 0 15.0
2020-Aug-06 09:58 328 15.0
2020-Aug-06 09:53 328 0 gusting 1 14.4
2020-Aug-06 09:48 328 0 gusting 1 15.0
2020-Aug-06 09:43 333 0 gusting 1 15.0
2020-Aug-06 09:38 333 0 gusting 1 15.0
2020-Aug-06 09:33 333 15.0
2020-Aug-06 09:28 333 15.0
2020-Aug-06 09:23 333 15.0
2020-Aug-06 09:18 333 15.0
2020-Aug-06 09:13 333 15.0
2020-Aug-06 09:08 333 15.0
2020-Aug-06 09:03 333 15.0
2020-Aug-06 08:58 333 15.0
2020-Aug-06 08:53 333 15.0
2020-Aug-06 08:48 333 15.0
2020-Aug-06 08:43 333 15.6
2020-Aug-06 08:38 333 15.6
2020-Aug-06 08:33 333 15.6
2020-Aug-06 08:28 333 15.6
2020-Aug-06 08:23 333 15.6
2020-Aug-06 08:18 333 15.6
2020-Aug-06 08:13 333 15.6
2020-Aug-06 08:08 333 15.6
2020-Aug-06 08:03 333 15.6
2020-Aug-06 07:58 333 15.6
2020-Aug-06 07:53 333 0 gusting 0 15.6
2020-Aug-06 07:48 333 15.6
2020-Aug-06 07:43 333 16.1
2020-Aug-06 07:38 333 16.1
2020-Aug-06 07:33 333 16.1
2020-Aug-06 07:28 333 16.1
2020-Aug-06 07:23 333 0 gusting 0 16.1
2020-Aug-06 07:18 333 16.1
2020-Aug-06 07:13 333 16.1
2020-Aug-06 07:08 333 16.1
2020-Aug-06 07:03 333 16.1
2020-Aug-06 06:58 333 0 gusting 0 16.1
2020-Aug-06 06:53 333 16.7
2020-Aug-06 06:48 333 16.7
2020-Aug-06 06:43 333 16.7
2020-Aug-06 06:38 333 16.7
2020-Aug-06 06:33 333 16.7
2020-Aug-06 06:28 333 16.7
2020-Aug-06 06:23 333 16.7
2020-Aug-06 06:18 333 17.2
2020-Aug-06 06:13 333 17.2
2020-Aug-06 06:08 333 17.2
2020-Aug-06 06:03 333 17.2
2020-Aug-06 05:58 333 0 gusting 1 17.2
2020-Aug-06 05:53 333 0 gusting 0 17.8
2020-Aug-06 05:48 333 0 gusting 0 17.8
2020-Aug-06 05:43 333 17.8
2020-Aug-06 05:38 333 17.8
2020-Aug-06 05:33 333 0 gusting 1 17.8
2020-Aug-06 05:28 333 0 gusting 1 17.8
2020-Aug-06 05:23 333 0 gusting 1 18.3
2020-Aug-06 05:18 333 0 gusting 1 18.3
2020-Aug-06 05:13 333 0 gusting 1 18.3
2020-Aug-06 05:08 333 0 gusting 1 18.3
2020-Aug-06 05:03 333 0 gusting 1 18.3
2020-Aug-06 04:58 333 0 gusting 1 18.3
2020-Aug-06 04:53 333 0 gusting 1 18.3
2020-Aug-06 04:48 333 0 gusting 1 18.3
2020-Aug-06 04:43 333 0 gusting 1 18.3
2020-Aug-06 04:38 333 0 gusting 1 18.9
2020-Aug-06 04:33 333 0 gusting 1 18.9
2020-Aug-06 04:28 333 0 gusting 0 18.9
2020-Aug-06 04:23 333 18.9
2020-Aug-06 04:18 333 0 gusting 1 18.9
2020-Aug-06 04:13 333 0 gusting 1 19.4
2020-Aug-06 04:08 333 0 gusting 0 19.4
2020-Aug-06 04:03 333 19.4
2020-Aug-06 03:58 333 19.4
2020-Aug-06 03:53 333 19.4
2020-Aug-06 03:48 333 20.0
2020-Aug-06 03:43 333 20.0
2020-Aug-06 03:38 333 20.0
2020-Aug-06 03:33 333 20.0
2020-Aug-06 03:28 333 20.0
2020-Aug-06 03:23 333 20.6
2020-Aug-06 03:18 333 20.6
2020-Aug-06 03:13 333 20.6
2020-Aug-06 03:08 333 20.6
2020-Aug-06 03:03 333 20.6
2020-Aug-06 02:58 333 20.6
2020-Aug-06 02:53 333 21.1
2020-Aug-06 02:48 333 21.1
2020-Aug-06 02:43 333 21.1
2020-Aug-06 02:38 333 21.1
2020-Aug-06 02:33 333 21.1
2020-Aug-06 02:28 333 21.1
2020-Aug-06 02:23 333 21.1
2020-Aug-06 02:18 333 21.1
2020-Aug-06 02:13 333 0 gusting 0 21.7
2020-Aug-06 02:08 333 21.7
2020-Aug-06 02:03 333 21.7
2020-Aug-06 01:58 333 21.7
2020-Aug-06 01:53 333 21.7
2020-Aug-06 01:48 333 22.2
2020-Aug-06 01:43 333 22.2
2020-Aug-06 01:38 333 22.2
2020-Aug-06 01:33 333 22.2
2020-Aug-06 01:28 333 22.8
2020-Aug-06 01:23 333 22.8
2020-Aug-06 01:18 333 22.8
2020-Aug-06 01:13 333 22.8
2020-Aug-06 01:08 333 23.3
2020-Aug-06 01:03 333 23.3
2020-Aug-06 00:58 333 23.3
2020-Aug-06 00:53 333 23.9
2020-Aug-06 00:48 333 23.9
2020-Aug-06 00:43 333 0 gusting 0 24.4
2020-Aug-06 00:38 330 24.4
2020-Aug-06 00:33 330 25.0
2020-Aug-06 00:28 331 25.6
2020-Aug-06 00:23 331 25.6
2020-Aug-06 00:18 331 26.1
2020-Aug-06 00:13 331 26.1
2020-Aug-06 00:08 330 26.7
2020-Aug-06 00:03 330 0 gusting 1 26.7
2020-Aug-05 23:58 329 0 gusting 1 27.2
2020-Aug-05 23:53 017 0 gusting 3 27.2
2020-Aug-05 23:48 360 0 gusting 6 27.2
2020-Aug-05 23:43 315 1 gusting 6 27.8
2020-Aug-05 23:38 274 0 gusting 4 27.8
2020-Aug-05 23:33 273 2 gusting 4 27.8
2020-Aug-05 23:28 287 1 gusting 3 27.8
2020-Aug-05 23:23 327 0 gusting 6 28.3
2020-Aug-05 23:18 230 1 gusting 6 28.3
2020-Aug-05 23:13 264 1 gusting 6 28.3
2020-Aug-05 23:08 098 1 gusting 13 28.9
2020-Aug-05 23:03 308 1 gusting 13 28.9
2020-Aug-05 22:58 327 1 gusting 8 28.9
2020-Aug-05 22:53 300 3 gusting 7 28.9
2020-Aug-05 22:48 314 1 gusting 6 29.4
2020-Aug-05 22:43 303 0 gusting 4 29.4
2020-Aug-05 22:38 048 2 gusting 8 29.4
2020-Aug-05 22:33 017 0 gusting 9 29.4
2020-Aug-05 22:28 311 4 gusting 9 29.4
2020-Aug-05 22:23 300 1 gusting 7 30.0
2020-Aug-05 22:18 306 2 gusting 10 30.0
2020-Aug-05 22:13 274 4 gusting 10 30.0
2020-Aug-05 22:08 293 1 gusting 7 30.0
2020-Aug-05 22:03 290 3 gusting 9 30.0
2020-Aug-05 21:58 202 4 gusting 9 30.0
2020-Aug-05 21:53 355 2 gusting 9 30.6
2020-Aug-05 21:48 257 2 gusting 9 30.6
2020-Aug-05 21:43 282 3 gusting 6 30.6
2020-Aug-05 21:38 142 2 gusting 6 30.6
2020-Aug-05 21:33 207 1 gusting 7 30.6
2020-Aug-05 21:28 109 2 gusting 11 30.6
2020-Aug-05 21:23 173 3 gusting 11 30.6
2020-Aug-05 21:18 316 3 gusting 8 30.6
2020-Aug-05 21:13 199 1 gusting 7 30.6
2020-Aug-05 21:08 145 2 gusting 10 31.1
2020-Aug-05 21:03 338 3 gusting 12 31.1
2020-Aug-05 20:58 253 1 gusting 10 31.1
2020-Aug-05 20:53 262 3 gusting 6 31.7
2020-Aug-05 20:48 307 2 gusting 6 31.1
2020-Aug-05 20:43 129 1 gusting 9 31.1
2020-Aug-05 20:38 290 3 gusting 9 31.1
2020-Aug-05 20:33 244 3 gusting 8 31.1
2020-Aug-05 20:28 254 2 gusting 13 31.1
2020-Aug-05 20:23 217 5 gusting 12 31.7
2020-Aug-05 20:18 078 5 gusting 10 31.7
2020-Aug-05 20:13 231 2 gusting 9 31.7
2020-Aug-05 20:08 265 4 gusting 7 31.7
2020-Aug-05 20:03 216 2 gusting 7 31.7
2020-Aug-05 19:58 200 3 gusting 10 31.7
2020-Aug-05 19:53 248 6 gusting 11 32.2
2020-Aug-05 19:48 198 5 gusting 11 32.2
2020-Aug-05 19:43 132 3 gusting 13 32.2
2020-Aug-05 19:38 233 3 gusting 13 32.2
2020-Aug-05 19:33 262 5 gusting 11 32.2
2020-Aug-05 19:28 191 3 gusting 10 32.2
2020-Aug-05 19:23 207 3 gusting 10 32.2
2020-Aug-05 19:18 207 2 gusting 10 32.2
2020-Aug-05 19:13 292 3 gusting 16 32.2
2020-Aug-05 19:08 266 3 gusting 16 32.8
2020-Aug-05 19:03 279 5 gusting 12 32.8
2020-Aug-05 18:58 210 4 gusting 8 32.8
2020-Aug-05 18:53 202 2 gusting 7 32.2
2020-Aug-05 18:48 185 2 gusting 13 32.2
2020-Aug-05 18:43 271 5 gusting 13 32.2
2020-Aug-05 18:38 303 4 gusting 11 32.2
2020-Aug-05 18:33 266 2 gusting 9 32.2
2020-Aug-05 18:28 292 3 gusting 8 32.2
2020-Aug-05 18:23 308 1 gusting 6 32.2
2020-Aug-05 18:18 333 2 gusting 8 32.2
2020-Aug-05 18:13 005 2 gusting 9 32.2
2020-Aug-05 18:08 195 3 gusting 6 32.2
2020-Aug-05 18:03 173 3 gusting 7 31.7
2020-Aug-05 17:58 195 4 gusting 13 31.7
2020-Aug-05 17:53 304 5 gusting 13 31.7
2020-Aug-05 17:48 296 2 gusting 7 31.7
2020-Aug-05 17:43 211 3 gusting 10 31.7
2020-Aug-05 17:38 181 1 gusting 10 31.7
2020-Aug-05 17:33 355 2 gusting 9 31.7
2020-Aug-05 17:28 331 2 gusting 9 31.7
2020-Aug-05 17:23 193 3 gusting 8 31.7
2020-Aug-05 17:18 133 5 gusting 11 31.7
2020-Aug-05 17:13 271 5 gusting 12 31.1
2020-Aug-05 17:08 235 6 gusting 12 31.1
2020-Aug-05 17:03 157 4 gusting 11 30.6
2020-Aug-05 16:58 163 3 gusting 11 30.6
2020-Aug-05 16:53 173 4 gusting 12 30.0
2020-Aug-05 16:48 025 2 gusting 12 30.0
2020-Aug-05 16:43 299 4 gusting 8 31.1
2020-Aug-05 16:38 281 2 gusting 9 31.1
2020-Aug-05 16:33 267 1 gusting 10 31.1
2020-Aug-05 16:28 209 2 gusting 13 31.1
2020-Aug-05 16:23 218 2 gusting 8 31.1
2020-Aug-05 16:18 300 2 gusting 6 30.6
2020-Aug-05 16:13 039 0 gusting 7 30.6
2020-Aug-05 16:08 216 1 gusting 7 30.0
2020-Aug-05 16:03 117 3 gusting 7 30.0
2020-Aug-05 15:58 301 1 gusting 8 30.0
2020-Aug-05 15:53 293 3 gusting 8 30.0
2020-Aug-05 15:48 307 2 gusting 8 30.0
2020-Aug-05 15:43 186 2 gusting 7 30.0
2020-Aug-05 15:38 247 1 gusting 5 29.4
2020-Aug-05 15:33 291 3 gusting 6 29.4
2020-Aug-05 15:28 248 1 gusting 8 29.4
2020-Aug-05 15:23 156 2 gusting 8 29.4
2020-Aug-05 15:18 241 0 gusting 6 28.9
2020-Aug-05 15:13 296 2 gusting 7 29.4
2020-Aug-05 15:08 231 2 gusting 7 28.9
2020-Aug-05 15:03 329 2 gusting 6 28.9
2020-Aug-05 14:58 209 2 gusting 6 28.9
2020-Aug-05 14:53 288 3 gusting 6 28.9
2020-Aug-05 14:48 244 2 gusting 6 28.9
2020-Aug-05 14:43 211 3 gusting 7 28.9
2020-Aug-05 14:38 150 1 gusting 7 28.3
2020-Aug-05 14:33 176 2 gusting 6 28.3
2020-Aug-05 14:28 311 2 gusting 6 27.8
2020-Aug-05 14:23 341 3 gusting 6 27.8
2020-Aug-05 14:18 281 2 gusting 6 27.2
2020-Aug-05 14:13 198 2 gusting 7 27.2
2020-Aug-05 14:08 005 3 gusting 7 26.7
2020-Aug-05 14:03 224 1 gusting 6 26.7
2020-Aug-05 13:58 202 2 gusting 6 26.7
2020-Aug-05 13:53 126 1 gusting 6 26.1
2020-Aug-05 13:48 196 2 gusting 6 26.1
2020-Aug-05 13:43 322 1 gusting 4 25.6
2020-Aug-05 13:38 317 1 gusting 5 25.6
2020-Aug-05 13:33 245 1 gusting 4 25.6
2020-Aug-05 13:28 151 2 gusting 5 25.0
2020-Aug-05 13:23 209 1 gusting 3 25.0
2020-Aug-05 13:18 272 0 gusting 2 24.4
2020-Aug-05 13:13 157 0 gusting 4 24.4
2020-Aug-05 13:08 148 2 gusting 4 24.4
2020-Aug-05 13:03 156 1 gusting 4 23.9
2020-Aug-05 12:58 329 2 gusting 6 23.9
2020-Aug-05 12:53 171 0 gusting 6 23.9
2020-Aug-05 12:48 261 1 gusting 3 23.9
2020-Aug-05 12:43 169 0 gusting 3 23.3
2020-Aug-05 12:38 137 0 gusting 5 23.3
2020-Aug-05 12:33 289 0 gusting 6 23.3
2020-Aug-05 12:28 263 0 gusting 5 23.3
2020-Aug-05 12:23 344 1 gusting 6 22.8
2020-Aug-05 12:18 290 2 gusting 6 22.8
2020-Aug-05 12:13 297 2 gusting 6 22.8
2020-Aug-05 12:08 019 1 gusting 9 22.8
2020-Aug-05 12:03 252 2 gusting 7 22.8
2020-Aug-05 11:58 166 2 gusting 7 22.8
2020-Aug-05 11:53 238 1 gusting 4 22.2
2020-Aug-05 11:48 231 1 gusting 6 22.2
2020-Aug-05 11:43 135 1 gusting 7 22.2
2020-Aug-05 11:38 146 2 gusting 7 21.7
2020-Aug-05 11:33 289 2 gusting 7 21.7
2020-Aug-05 11:28 192 1 gusting 7 21.7
2020-Aug-05 11:23 250 1 gusting 4 21.1
2020-Aug-05 11:18 270 1 gusting 2 21.1
2020-Aug-05 11:13 294 0 gusting 3 21.1
2020-Aug-05 11:08 302 1 gusting 4 21.1
2020-Aug-05 11:03 203 0 gusting 4 21.1
2020-Aug-05 10:58 219 0 gusting 4 21.1
2020-Aug-05 10:53 211 0 gusting 3 20.6
2020-Aug-05 10:48 316 0 gusting 1 20.6
2020-Aug-05 10:43 317 0 gusting 2 20.6
2020-Aug-05 10:38 317 0 gusting 2 20.6
2020-Aug-05 10:33 133 0 gusting 3 20.6
2020-Aug-05 10:28 161 0 gusting 3 20.6
2020-Aug-05 10:23 222 1 gusting 4 20.6
2020-Aug-05 10:18 185 1 gusting 4 20.6
2020-Aug-05 10:13 188 20.6
2020-Aug-05 10:08 217 1 gusting 3 20.6
2020-Aug-05 10:03 274 0 gusting 2 20.6
2020-Aug-05 09:58 274 20.6
2020-Aug-05 09:53 334 20.6
2020-Aug-05 09:48 306 20.6
2020-Aug-05 09:43 298 1 gusting 6 20.6
2020-Aug-05 09:38 294 0 gusting 2 20.6
2020-Aug-05 09:33 033 0 gusting 2 20.6
2020-Aug-05 09:28 303 20.6
2020-Aug-05 09:23 023 20.6
2020-Aug-05 09:18 279 0 gusting 1 20.6
2020-Aug-05 09:13 280 20.6
2020-Aug-05 09:08 297 0 gusting 2 20.6
2020-Aug-05 09:03 311 0 gusting 1 20.6
2020-Aug-05 08:58 311 0 gusting 1 20.6
2020-Aug-05 08:53 311 0 gusting 1 20.6
2020-Aug-05 08:48 311 20.6
2020-Aug-05 08:43 311 20.6
2020-Aug-05 08:38 311 20.6
2020-Aug-05 08:33 312 21.1
2020-Aug-05 08:28 315 0 gusting 2 21.1
2020-Aug-05 08:23 315 0 gusting 2 21.1
2020-Aug-05 08:18 284 0 gusting 2 21.1
2020-Aug-05 08:13 130 0 gusting 2 21.1
2020-Aug-05 08:08 196 0 gusting 2 20.6
2020-Aug-05 08:04 253 0 gusting 2 20.6
2020-Aug-05 07:58 104 0 gusting 4 20.6
2020-Aug-05 07:53 146 1 gusting 4 20.6
2020-Aug-05 07:48 218 0 gusting 3 20.6
2020-Aug-05 07:43 230 0 gusting 3 20.6
2020-Aug-05 07:38 205 1 gusting 2 20.6
2020-Aug-05 07:33 208 0 gusting 1 20.6
2020-Aug-05 07:28 208 20.6
2020-Aug-05 07:23 208 21.1
2020-Aug-05 07:18 208 21.1
2020-Aug-05 07:13 208 21.1
2020-Aug-05 07:08 208 21.1
2020-Aug-05 07:03 208 21.1
2020-Aug-05 06:58 208 21.1
2020-Aug-05 06:53 208 0 gusting 1 21.1
2020-Aug-05 06:48 207 21.1
2020-Aug-05 06:43 242 21.7
2020-Aug-05 06:38 264 0 gusting 2 21.7
2020-Aug-05 06:33 221 0 gusting 2 21.7
2020-Aug-05 06:28 212 0 gusting 4 21.7
2020-Aug-05 06:23 268 0 gusting 4 21.7
2020-Aug-05 06:18 153 21.7
2020-Aug-05 06:13 153 0 gusting 4 21.7
2020-Aug-05 06:08 157 1 gusting 4 21.7
2020-Aug-05 06:03 256 2 gusting 4 21.7
2020-Aug-05 05:58 194 1 gusting 4 21.7
2020-Aug-05 05:53 184 2 gusting 4 21.7
2020-Aug-05 05:48 146 2 gusting 5 21.7
2020-Aug-05 05:43 208 1 gusting 6 21.7
2020-Aug-05 05:38 246 3 gusting 6 21.7
2020-Aug-05 05:33 189 1 gusting 4 21.7
2020-Aug-05 05:28 149 0 gusting 6 21.7
2020-Aug-05 05:23 172 3 gusting 7 21.7
2020-Aug-05 05:18 194 2 gusting 7 21.7
2020-Aug-05 05:13 148 1 gusting 6 21.7
2020-Aug-05 05:08 169 1 gusting 5 21.7
2020-Aug-05 05:03 186 2 gusting 5 21.7
2020-Aug-05 04:58 214 0 gusting 4 21.7
2020-Aug-05 04:53 167 0 gusting 4 21.7
2020-Aug-05 04:48 196 1 gusting 6 21.7
2020-Aug-05 04:43 270 1 gusting 6 21.7
2020-Aug-05 04:38 258 1 gusting 7 21.7
2020-Aug-05 04:33 229 1 gusting 6 21.7
2020-Aug-05 04:28 209 0 gusting 4 22.2
2020-Aug-05 04:23 178 1 gusting 6 22.2
2020-Aug-05 04:18 246 1 gusting 6 22.2
2020-Aug-05 04:13 247 0 gusting 5 22.2
2020-Aug-05 04:08 266 3 gusting 5 22.2
2020-Aug-05 04:03 259 1 gusting 6 22.2
2020-Aug-05 03:58 263 2 gusting 6 22.2
2020-Aug-05 03:53 259 1 gusting 10 22.2
2020-Aug-05 03:48 141 3 gusting 10 22.2
2020-Aug-05 03:43 188 4 gusting 7 22.2
2020-Aug-05 03:38 282 2 gusting 9 22.8
2020-Aug-05 03:33 090 3 gusting 9 22.8
2020-Aug-05 03:28 322 1 gusting 7 22.8
2020-Aug-05 03:23 224 3 gusting 9 22.8
2020-Aug-05 03:18 160 1 gusting 7 22.8
2020-Aug-05 03:13 182 0 gusting 7 22.8
2020-Aug-05 03:08 265 2 gusting 7 22.8
2020-Aug-05 03:03 180 1 gusting 7 22.8
2020-Aug-05 02:58 246 1 gusting 8 22.8
2020-Aug-05 02:53 202 3 gusting 8 22.8
2020-Aug-05 02:48 321 3 gusting 6 22.8
2020-Aug-05 02:43 143 1 gusting 6 22.8
2020-Aug-05 02:38 200 2 gusting 7 23.3
2020-Aug-05 02:33 265 2 gusting 9 23.3
2020-Aug-05 02:28 293 4 gusting 9 23.3
2020-Aug-05 02:23 231 2 gusting 8 23.3
2020-Aug-05 02:18 319 4 gusting 8 23.3
2020-Aug-05 02:13 203 3 gusting 10 23.3
2020-Aug-05 02:08 234 4 gusting 10 23.3
2020-Aug-05 02:03 200 2 gusting 13 23.3
2020-Aug-05 01:58 152 1 gusting 13 23.3
2020-Aug-05 01:53 236 5 gusting 10 23.3
2020-Aug-05 01:48 192 2 gusting 9 23.3
2020-Aug-05 01:43 159 4 gusting 10 23.3
2020-Aug-05 01:38 252 4 gusting 15 23.3
2020-Aug-05 01:33 164 6 gusting 12 23.3
2020-Aug-05 01:28 313 5 gusting 12 23.3
2020-Aug-05 01:23 161 4 gusting 19 23.9
2020-Aug-05 01:18 322 6 gusting 19 23.9
2020-Aug-05 01:10 257 6 gusting 17 23.9
2020-Aug-05 01:08 336 4 gusting 18 23.9
2020-Aug-05 01:03 320 5 gusting 18 23.9